Dewpoint
8 8 8 8 8 8 9 10 11 11 10 10 11 11 11 11 10 10 10 10 10 10 11 11 10 10 10 10 10 11 11 10 8 7 8 7 6 6 5 9 10 9 9
6 7 7 4 3 1 1 6 9 10 10 10 10 10 10 10 10 11 10 10 10 11 11 12 12 12 12 11 10 11 11 11 11 10 9 9 9 9 7 6 9 9 9
6 5 6 2 -2 -3 -5 -3 1 6 8 9 9 9 9 9 10 10 10 11 11 11 11 10 11 11 11 12 11 11 11 11 10 11 10 10 11 11 11 10 7 7 9
5 4 5 2 -3 -5 -7 -7 -5 -1 4 6 7 8 8 8 8 8 8 9 10 10 11 10 11 10 10 10 11 11 11 11 11 11 11 10 10 9 10 11 11 9 7
4 4 4 2 -5 -7 -7 -9 -8 -3 -1 2 4 6 7 7 7 7 7 7 8 9 9 10 10 9 9 9 9 10 10 10 10 11 10 10 10 10 10 11 11 11 10
4 3 3 2 -3 -8 -9 -11 -13 -11 -7 -4 -2 -0 3 5 6 6 6 6 7 7 7 8 9 9 8 9 8 8 9 9 9 10 10 10 10 10 10 10 11 11 11
3 3 3 1 -3 -9 -11 -14 -15 -16 -12 -12 -10 -10 -7 -5 -2 1 3 2 1 3 6 6 7 7 8 8 7 7 7 8 9 9 9 9 9 10 10 9 10 11 11
3 2 2 0 -1 -7 -11 -12 -18 -15 -18 -19 -20 -19 -22 -21 -23 -23 -23 -20 -17 -14 -10 -3 4 5 5 5 5 6 7 6 7 8 7 8 8 8 9 9 9 10 9
1 1 1 -1 -5 -6 -12 -15 -15 -20 -20 -20 -21 -19 -20 -12 -19 -22 -23 -24 -25 -26 -26 -26 -22 -11 -2 1 2 3 3 3 4 4 5 5 6 7 7 7 6 7 8
-1 -3 -2 -2 -10 -11 -14 -18 -19 -19 -20 -21 -21 -22 -20 -20 -11 -14 -20 -22 -23 -24 -25 -26 -27 -27 -27 -26 -24 -19 -12 -9 -6 -2 2 2 2 3 3 3 4 5 5
-4 -7 -6 -10 -14 -16 -17 -19 -19 -19 -19 -20 -20 -21 -22 -20 -20 -14 -12 -18 -20 -22 -23 -24 -25 -26 -26 -27 -27 -28 -28 -28 -26 -7 -1 -2 -8 -2 -4 -10 -8 -4 -0
-4 -8 -8 -11 -16 -18 -19 -19 -19 -19 -19 -19 -20 -20 -20 -21 -21 -21 -15 -13 -12 -18 -20 -21 -22 -23 -24 -25 -25 -26 -27 -28 -27 -15 -2 -3 -21 -24 -25 -24 -23 -23 -22
-5 -11 -11 -14 -19 -19 -20 -20 -20 -19 -20 -21 -21 -21 -22 -21 -20 -20 -19 -18 -13 -17 -18 -19 -19 -20 -21 -21 -22 -23 -24 -26 -26 -25 -14 -9 -26 -27 -28 -29 -28 -27 -25
-6 -10 -13 -17 -21 -21 -22 -22 -22 -22 -22 -23 -23 -23 -24 -24 -24 -24 -22 -20 -15 -16 -16 -14 -17 -18 -19 -20 -20 -21 -22 -23 -24 -26 -26 -26 -26 -27 -27 -27 -27 -28 -27
-11 -14 -17 -19 -21 -22 -22 -23 -23 -23 -24 -24 -25 -25 -26 -26 -26 -25 -25 -23 -14 -11 -12 -16 -16 -18 -18 -18 -18 -18 -18 -19 -20 -21 -22 -23 -23 -24 -24 -24 -24 -24 -24
-15 -17 -18 -20 -21 -23 -24 -24 -25 -26 -26 -26 -27 -27 -27 -27 -27 -27 -26 -23 -21 -19 -12 -18 -18 -18 -18 -18 -18 -17 -17 -17 -18 -20 -22 -23 -24 -24 -24 -24 -23 -21 -21
-16 -17 -19 -21 -23 -24 -25 -26 -26 -26 -24 -22 -20 -18 -18 -18 -18 -19 -20 -21 -22 -22 -20 -21 -20 -18 -17 -16 -16 -17 -19 -21 -23 -24 -24 -24 -24 -24 -23 -21 -21 -19 -20
-17 -19 -21 -23 -24 -25 -25 -21 -16 -13 -11 -10 -11 -12 -13 -14 -16 -18 -20 -21 -22 -23 -23 -22 -22 -21 -20 -21 -22 -23 -23 -24 -24 -24 -24 -24 -24 -23 -22 -20 -17 -14 -11
-18 -20 -22 -23 -20 -15 -10 -9 -8 -8 -9 -10 -12 -14 -17 -19 -21 -22 -23 -23 -23 -23 -23 -23 -22 -22 -22 -22 -23 -23 -23 -24 -24 -24 -23 -23 -23 -22 -21 -21 -19 -19 -18
-19 -21 -19 -13 -9 -8 -9 -8 -8 -9 -12 -17 -20 -20 -19 -19 -19 -19 -19 -20 -20 -21 -21 -21 -22 -22 -22 -21 -21 -21 -20 -21 -21 -21 -21 -21 -21 -21 -20 -20 -19 -18 -18
-20 -17 -11 -9 -9 -8 -8 -9 -12 -17 -18 -17 -16 -16 -15 -15 -15 -15 -17 -18 -19 -20 -20 -20 -19 -19 -15 -15 -14 -15 -17 -16 -16 -19 -17 -17 -18 -19 -19 -20 -19 -18 -17
-18 -12 -11 -9 -8 -8 -8 -9 -11 -13 -15 -14 -12 -13 -13 -12 -12 -14 -17 -19 -19 -19 -18 -17 -13 -11 -11 -10 -10 -12 -13 -12 -11 -12 -16 -15 -16 -19 -18 -18 -18 -17 -17
-11 -9 -9 -8 -8 -8 -11 -13 -15 -17 -17 -15 -12 -11 -11 -12 -13 -15 -17 -18 -19 -20 -19 -18 -18 -15 -12 -11 -9 -9 -9 -10 -10 -11 -13 -15 -12 -15 -11 -14 -16 -16 -16
-9 -10 -9 -9 -8 -9 -13 -14 -15 -16 -15 -13 -12 -11 -11 -13 -14 -16 -17 -18 -19 -20 -20 -20 -20 -20 -19 -16 -13 -12 -11 -12 -12 -14 -13 -11 -10 -9 -10 -10 -15 -17 -18
-10 -9 -9 -9 -9 -11 -13 -15 -15 -16 -15 -13 -11 -11 -12 -13 -15 -17 -19 -20 -21 -21 -21 -21 -20 -21 -20 -14 -12 -10 -10 -10 -9 -10 -10 -10 -9 -10 -10 -11 -13 -17 -18
-8 -9 -9 -9 -10 -13 -17 -18 -17 -15 -12 -11 -11 -12 -13 -15 -18 -20 -18 -13 -13 -16 -13 -13 -12 -12 -15 -16 -17 -12 -10 -10 -9 -9 -10 -10 -10 -11 -11 -11 -12 -15 -15
Wind_Speed
5 6 8 9 10 11 12 13 13 13 13 12 10 9 8 7 6 6 5 6 6 3 5 4 3 4 6 8 9 8 7 6 6 6 6 3 4 4 5 6 6 4 6
7 5 7 10 11 12 13 14 14 14 13 13 12 10 8 8 9 8 5 5 5 4 5 14 10 9 6 11 12 9 7 6 5 4 3 2 1 3 4 5 4 3 3
10 8 9 11 12 12 13 14 15 15 15 15 13 12 11 10 9 7 8 11 13 10 7 8 15 20 21 19 14 13 12 9 7 5 5 2 3 4 3 3 5 6 5
8 8 10 12 14 14 15 16 16 16 16 15 14 13 13 12 11 10 9 8 3 6 7 8 6 3 11 12 13 12 7 4 3 3 4 5 6 7 7 7 7 7 8
8 8 10 12 13 14 16 16 17 17 16 15 14 13 14 13 13 12 11 11 10 7 5 8 8 8 5 6 9 6 3 3 0 0 4 6 5 5 8 8 7 8 11
11 9 13 12 13 14 15 16 16 17 16 15 14 13 13 13 13 13 13 14 15 13 12 8 7 8 10 9 4 2 2 5 4 3 4 3 4 4 6 8 7 8 10
14 12 12 13 15 15 15 16 17 15 18 19 15 12 10 10 11 12 14 15 15 17 19 17 14 10 10 11 9 8 7 6 5 5 7 6 7 5 9 5 11 14 13
15 13 11 12 13 15 15 15 14 17 16 16 14 11 8 7 10 10 10 11 11 11 13 15 19 19 18 19 18 12 10 9 7 8 5 9 11 9 13 9 13 9 10
17 16 12 12 13 15 15 16 16 15 16 17 13 9 5 4 10 10 11 11 10 10 10 10 11 13 15 18 21 20 19 19 19 20 16 17 17 13 12 12 14 17 20
20 19 17 14 14 16 18 17 18 17 16 15 14 14 9 7 5 4 9 9 9 9 9 9 9 9 10 10 12 13 14 16 19 20 10 14 26 28 26 23 25 24 27
19 17 16 16 15 16 17 17 16 16 16 15 14 13 13 11 8 5 5 7 7 8 8 8 8 8 8 9 10 11 12 13 13 7 2 11 25 28 29 28 28 30 33
19 18 16 16 16 16 16 16 16 15 14 14 14 13 13 11 11 8 6 7 6 8 8 8 7 7 7 8 9 10 10 11 11 10 1 4 18 17 16 16 16 17 20
17 16 15 15 15 16 15 15 15 14 14 13 13 12 12 12 10 11 9 8 6 8 9 9 8 7 7 7 7 7 8 9 11 12 11 10 14 11 10 11 13 13 14
15 14 14 14 13 13 13 13 12 12 12 11 11 11 10 10 10 10 10 9 6 6 8 9 10 9 8 7 7 7 7 7 8 10 11 12 11 9 9 10 12 13 14
15 15 14 13 13 13 12 12 11 10 10 10 9 9 9 9 8 8 9 10 8 6 5 10 8 10 9 8 7 7 7 7 8 9 10 10 11 10 9 9 10 11 12
14 14 14 13 13 13 12 11 10 10 9 9 8 7 7 7 6 6 7 8 9 8 5 8 10 9 8 8 8 8 9 9 10 11 12 12 13 13 13 13 12 12 12
14 13 13 13 12 12 12 11 10 9 8 7 7 6 5 5 4 5 5 5 6 7 7 7 8 9 9 10 10 10 11 11 12 12 12 12 12 12 13 11 12 13 15
16 14 14 14 14 13 13 12 10 8 5 4 4 5 5 5 5 5 5 5 5 5 6 7 8 9 10 11 11 12 12 12 12 13 13 13 13 12 12 13 13 13 15
17 17 16 16 16 15 13 9 7 6 6 7 6 6 6 5 5 4 3 3 4 4 5 6 7 8 9 10 11 12 12 12 12 13 13 13 13 13 13 14 15 16 16
17 18 18 17 14 9 7 7 7 7 8 8 8 8 7 5 4 3 3 4 4 5 6 6 8 9 9 11 11 11 10 11 12 13 14 13 14 14 14 15 16 16 16
17 17 16 11 6 6 6 6 7 8 8 7 6 5 4 3 3 4 5 5 6 6 6 7 8 9 9 10 9 11 13 12 12 12 12 13 13 14 15 16 16 17 17
18 16 11 8 7 7 7 8 8 8 8 7 6 4 4 4 6 7 7 8 9 9 9 10 10 10 10 11 11 12 13 11 9 12 12 12 15 16 16 16 16 16 17
15 10 8 8 9 9 9 9 9 9 8 7 6 6 7 7 8 8 9 10 11 12 13 14 15 14 14 13 12 11 11 13 14 14 16 16 12 14 12 15 17 18 19
12 9 9 10 11 12 12 12 11 9 9 8 8 9 9 9 10 11 12 13 13 14 16 17 19 20 19 18 17 17 17 18 17 17 15 16 14 13 13 15 19 18 18
11 10 10 11 12 13 13 12 11 10 10 11 11 11 11 12 13 14 15 16 17 17 17 18 20 21 22 21 19 17 18 17 18 17 16 18 14 16 16 15 15 17 15
13 10 10 11 12 12 12 12 11 11 12 13 13 13 13 14 16 16 16 16 18 18 17 18 18 19 20 21 21 21 22 23 18 17 15 18 18 15 15 13 12 14 18
Wind_Direction
223 208 206 200 187 179 175 177 177 174 176 174 170 167 169 175 181 180 195 207 194 129 111 122 176 180 187 181 169 169 160 149 141 137 147 150 122 112 118 118 125 84 62
235 254 218 204 191 180 174 175 179 179 180 176 176 170 171 165 168 176 183 199 230 194 140 106 106 112 138 188 189 167 163 168 160 165 167 167 156 151 155 163 155 155 92
229 256 232 214 198 189 180 177 177 181 183 180 178 178 182 184 166 154 155 157 151 135 181 147 103 105 92 114 150 151 154 160 169 173 182 208 239 241 223 209 197 199 193
191 238 228 215 206 194 189 184 180 183 186 189 189 183 183 187 194 192 197 210 171 159 198 213 157 174 94 103 100 114 110 130 157 153 114 184 213 224 238 239 227 217 215
177 223 239 222 209 196 193 188 186 181 185 192 194 197 192 193 199 204 207 210 217 208 168 163 228 230 226 149 96 108 104 125 140 50 205 218 233 222 206 213 221 233 226
209 220 236 226 213 204 195 191 190 184 186 188 192 197 202 206 208 208 213 219 214 212 215 201 157 204 232 212 249 263 155 155 195 189 235 225 231 248 253 255 200 182 229
182 199 228 220 213 207 200 191 190 195 183 179 184 179 188 203 215 221 229 233 234 231 227 223 222 211 223 235 257 253 252 217 206 198 197 230 193 204 180 293 247 218 194
190 188 223 219 212 214 202 201 195 195 196 190 183 180 179 206 213 215 217 220 226 230 232 233 236 239 239 246 255 252 244 244 218 198 195 229 226 245 254 242 239 242 219
182 190 195 210 217 210 208 201 201 199 203 200 199 181 173 183 199 211 211 215 217 223 228 230 231 234 236 241 246 250 250 253 255 250 246 248 249 234 242 250 252 263 276
183 186 192 204 206 208 205 200 202 201 201 209 204 212 203 190 175 189 221 219 219 219 222 225 228 229 229 233 243 248 250 250 252 255 252 252 260 259 263 259 265 266 270
184 186 190 192 201 208 207 202 204 207 208 210 211 214 215 212 209 178 182 210 220 226 230 229 226 225 226 228 235 243 246 246 243 228 200 254 263 265 270 279 277 272 272
186 188 192 194 200 206 208 211 208 210 213 213 216 215 218 217 222 217 200 189 203 221 226 231 235 236 235 237 242 245 244 244 238 228 232 271 263 276 276 276 275 275 275
185 189 191 199 199 203 208 210 215 213 217 221 221 221 223 223 221 217 212 207 203 220 223 227 227 226 226 231 240 249 253 253 252 251 251 273 288 283 278 275 277 277 281
185 191 193 197 197 202 203 205 205 208 208 206 208 211 215 217 219 217 215 213 194 210 217 229 227 232 237 244 250 255 258 262 266 266 270 281 289 287 278 277 277 279 282
188 190 189 190 192 192 191 192 192 193 193 192 194 196 198 202 205 207 209 207 193 189 197 225 232 236 241 247 255 263 270 275 277 282 285 286 288 287 281 276 276 278 281
184 183 183 181 184 183 182 180 181 180 179 180 178 179 182 183 189 195 199 205 210 205 204 225 232 244 246 253 258 267 275 280 282 281 280 280 280 282 284 281 279 277 276
179 179 179 179 177 174 170 167 165 162 158 160 161 164 170 174 181 190 196 206 216 220 225 236 240 242 248 259 269 277 283 287 288 285 282 280 278 278 279 279 274 274 278
174 175 172 170 167 162 157 151 150 150 159 180 201 210 217 225 229 231 230 230 232 231 231 239 246 251 258 270 279 285 288 288 288 287 286 285 282 278 273 271 271 271 275
171 167 166 164 160 158 159 168 189 207 214 215 214 211 211 209 213 217 220 224 232 238 240 241 255 261 268 275 283 287 289 290 290 288 285 283 281 276 275 274 270 271 278
169 165 163 162 164 176 197 216 215 204 194 188 184 183 183 186 194 215 235 250 258 259 259 260 264 269 273 279 283 285 292 290 286 288 288 285 285 283 277 275 275 275 277
165 165 166 173 196 217 214 203 188 180 181 181 181 186 198 219 248 267 274 275 275 276 276 273 273 276 280 286 286 284 291 291 293 285 285 288 285 285 284 281 280 280 281
167 171 186 208 214 205 196 192 193 196 199 200 207 215 234 261 275 277 276 276 276 277 276 274 274 275 276 281 282 286 289 293 298 293 289 278 283 283 281 281 281 281 282
174 186 204 209 205 201 202 201 202 203 206 212 223 246 264 271 272 275 276 276 277 280 280 278 277 274 273 279 276 276 279 283 282 281 285 289 281 282 278 279 281 283 283
187 199 206 207 206 204 203 208 215 216 223 236 253 265 269 272 275 278 279 279 280 278 275 273 274 279 276 274 272 274 277 278 277 281 279 276 284 277 280 283 288 284 283
201 206 209 204 202 206 210 217 225 229 239 256 266 269 271 274 278 280 281 282 283 281 281 278 276 274 274 274 272 276 277 277 277 274 267 271 273 282 282 280 282 286 282
200 202 202 204 209 212 218 225 234 246 262 266 268 271 274 277 279 281 283 285 284 285 286 285 284 283 279 274 267 256 260 264 266 273 263 267 276 280 287 278 276 284 298
Height
1560 1562 1564 1565 1568 1569 1571 1573 1574 1576 1578 1581 1582 1584 1585 1587 1588 1590 1591 1591 1592 1592 1592 1593 1593 1593 1593 1595 1596 1597 1599 1600 1601 1602 1603 1604 1605 1606 1606 1607 1607 1608 1609
1559 1562 1564 1565 1567 1569 1571 1573 1574 1576 1578 1581 1583 1585 1587 1588 1589 1590 1591 1592 1593 1594 1594 1594 1594 1593 1593 1595 1596 1597 1599 1601 1602 1603 1605 1606 1606 1606 1607 1608 1608 1609 1610
1558 1561 1564 1565 1566 1568 1570 1572 1574 1576 1579 1581 1583 1585 1587 1589 1590 1591 1591 1592 1593 1594 1595 1595 1596 1595 1596 1594 1595 1596 1598 1601 1602 1604 1604 1605 1606 1607 1608 1609 1608 1610 1610
1556 1560 1562 1563 1565 1567 1569 1571 1573 1575 1578 1580 1582 1584 1587 1589 1591 1591 1593 1595 1593 1595 1597 1596 1596 1597 1597 1598 1594 1598 1598 1602 1604 1605 1605 1605 1606 1606 1608 1609 1609 1609 1609
1555 1559 1562 1563 1564 1566 1568 1570 1572 1575 1576 1578 1580 1583 1586 1588 1590 1591 1593 1594 1595 1597 1597 1596 1597 1598 1598 1598 1599 1601 1603 1604 1604 1605 1605 1605 1606 1607 1606 1607 1608 1609 1609
1553 1557 1560 1562 1564 1565 1567 1569 1571 1573 1575 1577 1579 1581 1583 1586 1588 1590 1591 1593 1595 1596 1597 1598 1598 1599 1598 1598 1600 1602 1602 1603 1603 1605 1606 1605 1605 1606 1606 1607 1607 1607 1608
1550 1555 1559 1560 1563 1564 1566 1568 1569 1573 1574 1575 1578 1580 1582 1584 1585 1587 1589 1590 1591 1593 1595 1597 1597 1598 1600 1599 1601 1601 1602 1602 1604 1605 1606 1605 1606 1604 1605 1607 1606 1606 1605
1550 1552 1556 1559 1561 1564 1565 1567 1569 1571 1573 1576 1576 1578 1581 1585 1585 1585 1587 1588 1590 1591 1592 1593 1595 1596 1598 1597 1600 1601 1602 1602 1604 1605 1604 1604 1604 1603 1604 1605 1607 1605 1603
1547 1551 1554 1557 1560 1562 1565 1566 1568 1571 1572 1574 1576 1577 1579 1582 1582 1584 1585 1586 1588 1589 1590 1591 1593 1594 1595 1596 1597 1598 1599 1601 1601 1603 1601 1600 1602 1603 1602 1602 1603 1603 1602
1544 1548 1551 1555 1559 1561 1563 1565 1567 1569 1571 1574 1574 1576 1577 1578 1581 1583 1584 1585 1586 1587 1589 1590 1591 1592 1593 1594 1594 1595 1596 1597 1598 1599 1599 1596 1598 1599 1598 1598 1600 1600 1600
1543 1547 1550 1553 1557 1560 1562 1564 1566 1567 1569 1571 1573 1575 1577 1578 1579 1581 1582 1583 1585 1586 1587 1588 1589 1590 1591 1591 1591 1592 1593 1594 1594 1595 1594 1593 1594 1595 1594 1594 1595 1595 1595
1542 1546 1549 1552 1556 1559 1561 1563 1564 1566 1568 1569 1571 1573 1575 1577 1578 1580 1581 1582 1585 1584 1585 1585 1586 1587 1588 1589 1590 1590 1591 1591 1592 1592 1592 1591 1591 1592 1591 1591 1591 1590 1590
1541 1546 1547 1551 1554 1557 1559 1561 1564 1565 1566 1568 1570 1571 1573 1575 1577 1578 1579 1580 1583 1583 1584 1585 1585 1586 1587 1588 1588 1589 1589 1589 1589 1589 1589 1588 1589 1589 1589 1588 1588 1587 1586
1541 1544 1546 1550 1553 1555 1558 1560 1562 1564 1565 1567 1568 1570 1571 1573 1574 1576 1577 1579 1581 1582 1583 1583 1584 1585 1586 1586 1587 1588 1588 1588 1587 1587 1587 1586 1586 1586 1586 1586 1585 1585 1584
1540 1543 1546 1549 1552 1555 1557 1558 1561 1563 1565 1566 1567 1569 1570 1571 1573 1574 1576 1577 1579 1581 1582 1582 1583 1583 1584 1584 1585 1586 1586 1586 1586 1586 1585 1584 1584 1584 1584 1583 1583 1583 1582
1540 1542 1546 1549 1551 1554 1556 1558 1560 1562 1564 1566 1567 1568 1569 1570 1572 1573 1575 1576 1577 1579 1580 1580 1581 1581 1582 1582 1583 1584 1584 1584 1583 1583 1582 1582 1582 1582 1581 1581 1581 1580 1579
1540 1543 1546 1549 1552 1554 1556 1558 1561 1563 1565 1566 1567 1569 1570 1571 1572 1573 1573 1575 1576 1577 1578 1578 1579 1580 1580 1580 1581 1581 1581 1581 1580 1580 1579 1579 1579 1578 1578 1578 1577 1576 1576
1540 1543 1546 1549 1552 1554 1556 1559 1561 1563 1565 1567 1568 1568 1569 1570 1572 1573 1573 1573 1575 1576 1577 1577 1577 1578 1578 1578 1578 1578 1578 1577 1577 1576 1576 1576 1575 1575 1574 1574 1574 1574 1573
1540 1544 1547 1550 1552 1554 1556 1559 1561 1562 1564 1565 1566 1567 1568 1569 1570 1572 1572 1572 1573 1574 1575 1576 1576 1576 1576 1576 1576 1575 1575 1574 1574 1573 1572 1572 1572 1572 1571 1571 1570 1570 1570
1540 1544 1547 1550 1552 1555 1556 1558 1560 1561 1562 1564 1565 1566 1567 1568 1569 1571 1572 1571 1572 1572 1573 1574 1574 1574 1574 1574 1574 1573 1573 1571 1571 1570 1569 1569 1569 1569 1568 1567 1567 1566 1566
1542 1545 1548 1551 1553 1554 1556 1557 1559 1560 1562 1563 1565 1566 1567 1568 1569 1571 1570 1570 1570 1571 1571 1572 1572 1572 1572 1572 1572 1570 1570 1569 1568 1567 1566 1565 1565 1565 1564 1563 1563 1562 1561
1542 1546 1548 1550 1552 1553 1555 1557 1558 1560 1562 1563 1564 1565 1566 1567 1568 1568 1568 1568 1569 1569 1569 1570 1570 1570 1570 1570 1569 1568 1567 1566 1566 1564 1563 1563 1561 1561 1560 1559 1558 1558 1557
1543 1546 1548 1550 1552 1553 1555 1556 1558 1559 1561 1562 1563 1565 1565 1566 1566 1566 1566 1567 1566 1566 1567 1567 1566 1566 1566 1566 1566 1565 1565 1564 1563 1562 1559 1558 1558 1556 1555 1554 1554 1553 1552
1543 1545 1547 1549 1550 1552 1554 1555 1556 1558 1559 1561 1562 1563 1563 1563 1564 1564 1564 1563 1563 1563 1563 1562 1562 1562 1562 1561 1561 1561 1560 1559 1557 1556 1555 1553 1554 1553 1552 1550 1549 1548 1547
1542 1544 1546 1547 1549 1551 1552 1554 1555 1556 1557 1558 1559 1560 1560 1560 1560 1560 1559 1559 1559 1559 1558 1558 1557 1557 1556 1556 1556 1556 1555 1554 1552 1552 1552 1550 1550 1549 1548 1546 1544 1543 1542
1541 1543 1544 1546 1548 1549 1551 1552 1553 1554 1555 1555 1556 1556 1556 1556 1556 1556 1555 1555 1554 1554 1554 1552 1552 1551 1550 1549 1549 1550 1550 1549 1549 1547 1547 1547 1547 1546 1543 1541 1539 1538 1537